Location: Caltech
(34.1382°N, 118.1253°W)
Time: 05:42:17
(UTC-07:00)

Cosmos 2219 - Visible Passes

Search period start: 25 April 2018 00:00
Search period end: 05 May 2018 00:00
Orbit: 832 x 861 km, 71.1° (Epoch: 24 April)

Date Brightness Start Highest point End Pass type
(mag) Time Alt. Az. Time Alt. Az. Time Alt. Az.
25 Apr 4.7 04:21:41 10° SSE 04:26:44 34° ESE 04:31:49 10° NE visible
26 Apr 4.7 04:08:34 11° SSE 04:13:16 33° ESE 04:18:19 10° NE visible
27 Apr 4.7 03:56:04 16° SSE 03:59:48 32° ESE 04:04:49 10° NE visible
27 Apr 4.2 05:38:53 10° WSW 05:43:52 30° WNW 05:48:53 10° N visible
28 Apr 4.7 03:43:28 20° SSE 03:46:20 31° ESE 03:51:18 10° NE visible
28 Apr 4.2 05:25:25 10° WSW 05:30:23 31° WNW 05:35:26 10° N visible
29 Apr 4.7 03:30:46 24° SE 03:32:53 30° ESE 03:37:48 10° NE visible
29 Apr 4.1 05:12:44 14° WSW 05:16:54 32° WNW 05:22:00 10° N visible
30 Apr 4.6 03:18:01 26° SE 03:19:25 29° ESE 03:24:18 10° NE visible
30 Apr 4.1 04:59:58 18° WSW 05:03:25 33° WNW 05:08:33 10° N visible
01 May 4.6 03:05:12 28° ESE 03:05:57 29° ESE 03:10:47 10° NE visible
01 May 4.1 04:47:09 22° WSW 04:49:56 33° WNW 04:55:06 10° N visible
02 May 4.7 02:52:20 28° ESE 02:52:29 28° ESE 02:57:17 10° NE visible
02 May 4.0 04:34:16 26° WSW 04:36:27 34° WNW 04:41:39 10° N visible
03 May 4.8 02:39:24 27° E 02:39:24 27° E 02:43:46 10° NE visible
03 May 4.0 04:21:20 30° W 04:22:58 35° WNW 04:28:13 10° N visible
04 May 4.9 02:26:25 25° E 02:26:25 25° E 02:30:15 10° NE visible
04 May 3.9 04:08:21 33° W 04:09:29 36° WNW 04:14:46 10° N visible
